Flag Weather past 2 weeks in Howland Island, U.S.A.

Now
84 °F

Passing clouds.


Feels Like: 96 °F
Forecast: 81 / 86 °F
Wind: 1 mph from North

Location: Funafuti

Current Time: Nov 28, 2014 at 9:54:24 PM

Latest Report: Nov 28, 2014 at 9:00 PM


Visibility: N/A

Pressure: 29.74 "Hg

Humidity: 84%

Dew point: 79 °F

Location of Howland IslandLocation

Historic Weather in Howland Island — Graph

°F

Howland Island temperature yesterday

Maximum temperature yesterday: 90 °F (at 10:00 AM)
Minimum temperature yesterday: 81 °F (at 12:00 AM)
Average temperature yesterday: 85 °F

Past Weeks' High & Low Weather Summary

 TemperatureHumidityPressure
High91 °F (Nov 18, 2:00 PM)100% (Nov 21, 6:00 PM)29.92 "Hg (Nov 21, 6:00 PM)
Low77 °F (Nov 21, 5:00 PM)63% (Nov 18, 2:00 PM)28.25 "Hg (Nov 17, 11:00 PM)
Average84 °F79%29.76 "Hg
* Reported Nov 13 8:00 PM — Nov 28 8:00 PM, Howland Island, Weather by CustomWeather, © 2014

Note: Actual official high and low records may vary slightly from our data, if they occured in-between our weather recording intervals... More about our weather records

Advertising

Howland Island weather history for previous 24 hours

 ConditionsComfort  
Time TempWeatherWind HumidityBarometerVisibility
8:00 PM
Nov 28
82 °FPartly cloudy.6 mph84%29.71 "HgN/A
7:00 PM82 °FScattered showers. Partly cloudy.5 mph84%29.71 "HgN/A
6:00 PM82 °FSprinkles. Broken clouds.6 mph89%29.68 "HgN/A
5:00 PM86 °FBroken clouds.2 mph75%29.68 "HgN/A
4:00 PM86 °FBroken clouds.3 mph75%29.65 "HgN/A
3:00 PM84 °FScattered showers. Broken clouds.3 mph84%29.65 "HgN/A
2:00 PM90 °FScattered showers. Scattered clouds.6 mph71%29.65 "HgN/A
1:00 PM90 °FScattered clouds.3 mph71%29.68 "HgN/A
12:00 PM90 °FScattered clouds.2 mph71%29.71 "HgN/A
11:00 AM90 °FScattered clouds.7 mph71%29.71 "HgN/A
10:00 AM90 °FScattered clouds.6 mph71%29.74 "HgN/A
9:00 AM88 °FPartly sunny.3 mph75%29.74 "HgN/A
6:00 AM82 °FPartly sunny.No wind79%29.71 "HgN/A
5:00 AM82 °FScattered showers. Partly cloudy.9 mph79%29.74 "HgN/A
3:00 AM82 °FScattered showers. Mostly cloudy.No wind84%29.71 "HgN/A
1:00 AM84 °FScattered showers. Partly cloudy.3 mph70%29.71 "HgN/A
12:00 AM84 °FScattered showers. Overcast.8 mph70%29.71 "HgN/A
11:00 PM
Nov 27
84 °FScattered showers. Passing clouds.6 mph74%29.71 "HgN/A
10:00 PM84 °FPassing clouds.6 mph74%29.74 "HgN/A
9:00 PM84 °FPassing clouds.7 mph79%29.71 "HgN/A
Weather by CustomWeather, © 2014

See weather overviewHow to use our weather pages